ES2JT Weather Reports


time (UTC)temp
C
wind
direction
speed
KPH
gust
KPH
rain 1hr
cm
rain 24hr
cm
rain mn
cm
humidity
%
barometer
mb
20260505053515 12 237 19.3 29.0 0.00 0.46 0.13 62 997.3
20260505052404 12 231 19.3 27.4 0.00 0.46 0.13 68 997.1
20260505051502 11 190 22.5 29.0 0.00 0.46 0.13 68 997.1
20260505050812 11 216 20.9 29.0 0.00 0.46 0.13 70 997.3
20260505041416 8 219 16.1 22.5 0.00 0.46 0.13 91 997.4
20260505040513 7 211 17.7 24.1 0.00 0.46 0.13 90 997.4
20260505035402 8 196 20.9 25.7 0.00 0.46 0.13 92 997.4
20260505034502 8 206 14.5 22.5 0.00 0.46 0.13 94 997.5
20260505033815 8 217 16.1 20.9 0.00 0.46 0.13 95 997.5
20260505032702 7 216 14.5 24.1 0.00 0.46 0.13 97 997.4
20260505032015 7 222 14.5 22.5 0.00 0.46 0.13 97 997.5
20260505030903 7 208 12.9 17.7 0.00 0.46 0.13 97 997.3
20260505030003 7 218 11.3 16.1 0.00 0.46 0.13 97 997.5
20260505025312 7 208 12.9 14.5 0.00 0.46 0.13 97 997.6
20260505024414 6 215 11.3 16.1 0.00 0.46 0.13 98 997.6
20260505023512 7 210 12.9 19.3 0.00 0.46 0.13 97 997.5
20260505022403 7 225 12.9 17.7 0.00 0.46 0.13 97 997.5
20260505021711 7 216 12.9 17.7 0.00 0.46 0.13 97 997.4
20260505020602 7 262 14.5 19.3 0.00 0.46 0.13 97 997.6
20260505015916 7 235 12.9 17.7 0.00 0.46 0.13 97 997.6
20260505014802 7 203 11.3 17.7 0.00 0.46 0.13 97 997.6
20260505013904 7 219 11.3 16.1 0.00 0.46 0.13 97 997.8
20260505013213 7 208 11.3 17.7 0.00 0.46 0.13 96 997.9
20260505012316 7 213 11.3 14.5 0.00 0.46 0.13 96 997.7
20260505011413 7 227 14.5 20.9 0.00 0.46 0.13 96 997.7
20260505010302 7 219 16.1 20.9 0.00 0.46 0.13 96 997.8
20260505005612 7 228 16.1 22.5 0.00 0.46 0.13 95 997.9
20260505004715 7 216 16.1 24.1 0.00 0.46 0.13 95 997.9
20260505003812 7 240 17.7 24.1 0.00 0.46 0.13 96 997.9
20260505002915 7 202 17.7 24.1 0.00 0.46 0.13 96 997.8
20260505001802 7 228 16.1 24.1 0.13 0.46 0.13 97 997.9
20260505001114 7 234 12.9 16.1 0.13 0.46 0.13 97 997.7
20260505000003 7 224 17.7 27.4 0.13 0.46 0.13 97 998.0
20260504235102 7 231 14.5 27.4 0.13 0.46 0.13 97 997.9
20260504234202 7 219 16.1 20.9 0.13 0.46 0.13 97 997.7
20260504233303 7 216 16.1 20.9 0.13 0.46 0.13 98 998.0
20260504192226 7 14 4.8 6.4 0.00 0.33 0.33 94 997.0
20260504191326 7 14 4.8 6.4 0.00 0.33 0.33 94 997.0
20260504190426 7 14 4.8 6.4 0.00 0.33 0.33 94 997.0
20260504185741 7 14 4.8 6.4 0.00 0.33 0.33 94 997.0
20260504184626 7 14 4.8 6.4 0.00 0.33 0.33 94 997.0
20260504183726 7 14 4.8 6.4 0.00 0.33 0.33 94 997.0
20260504183038 7 14 4.8 6.4 0.00 0.33 0.33 94 997.0
20260504182140 7 14 4.8 6.4 0.00 0.33 0.33 94 997.0
20260504181027 7 14 4.8 6.4 0.00 0.33 0.33 94 997.0
20260504180126 7 14 4.8 6.4 0.00 0.33 0.33 94 997.0
20260504175227 7 14 4.8 6.4 0.00 0.33 0.33 94 997.0
20260504174327 7 14 4.8 6.4 0.00 0.33 0.33 94 997.0
20260504173637 7 14 4.8 6.4 0.00 0.33 0.33 94 997.0
20260504172526 7 14 4.8 6.4 0.00 0.33 0.33 94 997.0
20260504171626 7 14 4.8 6.4 0.00 0.33 0.33 94 997.0
20260504170726 7 14 4.8 6.4 0.00 0.33 0.33 94 997.0
20260504160426 7 14 4.8 6.4 0.00 0.33 0.33 94 997.0
20260504151026 7 14 4.8 6.4 0.00 0.33 0.33 94 997.0
20260504150126 7 14 4.8 6.4 0.00 0.33 0.33 94 997.0
20260504140726 7 14 4.8 6.4 0.00 0.33 0.33 94 997.0
20260504130427 7 14 4.8 6.4 0.00 0.33 0.33 94 997.0
20260504120126 7 14 4.8 6.4 0.13 0.33 0.33 94 997.0
20260504100426 10 280 3.2 6.4 0.05 0.05 0.05 82 997.6
20260504090126 11 290 4.8 8.0 0.00 0.00 0.00 76 998.7
20260504081626 13 300 4.8 8.0 0.00 0.00 0.00 60 998.9
20260504080726 14 64 1.6 3.2 0.00 0.00 0.00 62 998.8
20260504060126 12 284 4.8 6.4 0.00 0.00 0.00 62 999.4